Regional Weather Roundup
Issued by NWS

Home | Current Version | Previous Version | Graphics & Text | Print | Product List | Glossary On
Versions: 1 2 3 4 5 6 7 8 9 10 11 12 13 14 15 16 17 18 19 20 21 22 23 24 25 26 27 28 29 30 31 32 33 34 35 36 37 38 39 40 41 42 43 44 45 46 47 48 49 50
273
ASUS43 KMKX 222200
RWRWI

WISCONSIN REGIONAL WEATHER ROUNDUP
NATIONAL WEATHER SERVICE MILWAUKEE/SULLIVAN WI
400 PM CST MON JAN 22 2018

NOTE: "FAIR" INDICATES FEW OR NO CLOUDS BELOW 12,000 FEET WITH NO
SIGNIFICANT WEATHER AND/OR OBSTRUCTIONS TO VISIBILITY.

WIZ001-002-006>008-014>016-023>028-222300-
NORTHWEST WISCONSIN

CITY           SKY/WX    TMP DP  RH WIND       PRES   REMARKS
SUPERIOR ARPT  CLOUDY    27  24  87 NE15G26   29.86F WCI  15
ASHLAND        HVY SNOW  25  24  96 NE28G38   29.82F VSB<1/4 WCI   9
HAYWARD        LGT SNOW  27  22  81 NE23G31   29.71R WCI  12
SIREN          LGT SNOW  27  24  87 NE13G21   29.76R WCI  16
CUMBERLAND     LGT SNOW  28  25  86 N16       29.69R VSB 1   WCI  17
RICE LAKE      CLOUDY    29  28  96 N17       29.70R WCI  16
CHETEK         HVY SNOW  29  29  99 N10       29.67R VSB<1/4 WCI  20
LADYSMITH      SNOW      30  28  94 CALM      29.71R VSB 1/2
EAU CLAIRE     NOT AVBL
MENOMONIE      SNOW      31  30  96 N14G20    29.63F VSB 1/4 WCI  21
NEW RICHMOND   HVY SNOW  28  27  96 N21       29.67S VSB<1/4 WCI  15
OSCEOLA        SNOW      29  29 100 N15       29.74R VSB 1/4 WCI  17
$$

WIZ003>005-009-010-017-018-222300-
NORTH CENTRAL WISCONSIN

CITY           SKY/WX    TMP DP  RH WIND       PRES   REMARKS
MANITOWISH WTR SNOW      25  25 100 N16G26    29.67F VSB 1/2 WCI  12
ARBOR VITAE    SNOW      29  27  92 NE15G24   29.64S VSB 1/2 WCI  18
WOODRUFF       SNOW      29  27  92 NE15G24   29.64S VSB 1/2 WCI  18
RHINELANDER    SNOW      29  28  96 NE13G26   29.58F VSB 1/2 WCI  19
EAGLE RIVER    SNOW      28  27  96 NE24G31   29.63F VSB 1/2 WCI  13
LAND O LAKES   LGT SNOW  27  25  91 N20       29.69F VSB 3/4 WCI  14
PHILLIPS       SNOW      27  27  99 NE20G26   29.61F VSB 1/2 WCI  13
TOMAHAWK       LGT SNOW  29  27  91 NE14      29.58F VSB 1   WCI  19
MEDFORD        LGT SNOW  31  28  91 E6        29.63R VSB 1   WCI  25
MERRILL        LGT SNOW  32  31  96 NE15G21   29.56S VSB 1   WCI  21
$$

WIZ029-030-035-036-043>047-222300-
CENTRAL WISCONSIN

CITY           SKY/WX    TMP DP  RH WIND       PRES   REMARKS
WAUSAU         SNOW      32  31  96 NE5       29.59R VSB 1/4 WCI  27
MOSINEE        NOT AVBL
MARSHFIELD     HVY SNOW  32  32 100 NE6       29.57S VSB 1/4 WCI  26
STEVENS POINT  MIX PCPN  30  30 100 NE10      29.58F VSB 1/4 WCI  21
WAUPACA        LGT SNOW  34  32  91 NE10G16   29.57R VSB 3/4 WCI  26
WAUTOMA        MIX PCPN  32  30  92 NE13      29.54R WCI  22
WISC RAPIDS    NOT AVBL
CAMP DOUGLAS   FLURRIES  34  32  93 NE9       29.52R WCI  26
$$

WIZ011>013-019>022-031-037>040-048>050-222300-
NORTHEAST WISCONSIN

CITY           SKY/WX    TMP DP  RH WIND       PRES   REMARKS
ANTIGO         MIX PCPN  30  29  96 NE24      29.54F WCI  16
SHAWANO        LGT RAIN  33  31  90 NE13G25   29.59R WCI  24
OCONTO         CLOUDY    31  30  94 NE14      29.57F WCI  21
STURGEON BAY   MIX PCPN  32  31  96 NE15G22   29.56F FOG     WCI  22
GREEN BAY      FRZ RAIN  33  31  92 NE20G26   29.56R WCI  21
MANITOWOC      RAIN      35  35 100 NE13G18   29.51S WCI  26
APPLETON       LGT RAIN  32  32 100 N17G24    29.49S WCI  21
CLINTONVILLE   LGT SNOW  32  30  93 E12       29.60R WCI  23
OSHKOSH        CLOUDY    34  32  92 N18G24    29.52R WCI  23
$$

WIZ032>034-041-042-053>061-222300-
SOUTHWEST WISCONSIN

CITY           SKY/WX    TMP DP  RH WIND       PRES   REMARKS
LA CROSSE      CLOUDY    34  33  96 N8        29.53R WCI  27
SPARTA         CLOUDY    32  32 100 E6        29.54R WCI  26
VIROQUA        CLOUDY    33  33 100 NE13      29.47S WCI  24
BOSCOBEL       CLOUDY    38  32  79 NE3       29.50R
PRAIRIE DU CHI CLOUDY    38  34  87 CALM      29.48R
PLATTEVILLE    CLOUDY    39  39 100 N9        29.44R WCI  33
$$

WIZ056-057-062-063-064-067-068-222300-
SOUTH CENTRAL WISCONSIN

CITY           SKY/WX    TMP DP  RH WIND       PRES   REMARKS
REEDSBURG      CLOUDY    35  35 100 NE12      29.48F WCI  26
BARABOO/DELLS  CLOUDY    34  34  98 NE13      29.48S WCI  25
LONE ROCK      NOT AVBL
MINERAL POINT  CLOUDY    37  37 100 NE13      29.44R WCI  29
MADISON        LGT RAIN  37  36  96 NE9       29.47S WCI  30
MIDDLETON      CLOUDY    37  37 100 NE12      29.46S WCI  30
WATERTOWN      CLOUDY    37  37 100 N5        29.46R FOG     WCI  33
MONROE         RAIN      37  37 100 NE8       29.42R VSB 3/4 WCI  31
JANESVILLE     FOG       43  43 100 N6        29.42S VSB 1/4
$$

WIZ051-052-058>065-066-070>072-222300-
SOUTHEAST WISCONSIN

CITY           SKY/WX    TMP DP  RH WIND       PRES   REMARKS
MILWAUKEE      FOG       40  39  97 NE3       29.46R VSB 1/2
WAUKESHA       CLOUDY    37  37 100 NE5       29.46R FOG     WCI  34
MILWAUKEE/TIMM CLOUDY    37  36  93 N3        29.47R FOG
RACINE         FOG       42  42 100 NE6       29.46R VSB 1/4
BURLINGTON     FAIR      50  47  90 SW6       29.44R
KENOSHA        FAIR      52  47  83 SW8       29.44S
FOND DU LAC    MIX PCPN  36  33  89 N14       29.50R WCI  27
SHEBOYGAN      LGT RAIN  37  37 100 N10       29.47S FOG     WCI  30
WEST BEND      CLOUDY    36  36 100 CALM      29.47R
JUNEAU         CLOUDY    36  35  97 N7        29.48S WCI  30
$$

LSZ147-162-222300-
LAKE SUPERIOR

STATION/POSITION TIME  TEMP    WIND        PRES    WAVE
                       AIR SEA DIR/SP/G            HT/PER
                 (UTC) (F)     (DEG/KT/KT) (MB)    (FT/S)
DEVILS ISLAND    2100   24      40/ 26/ 28 1013.0F
SAXON HARBOR     2130   29      40/ 27/ 35 1008.8F
$$

LMZ867-665-643>646-222300-
LAKE MICHIGAN

STATION/POSITION TIME  TEMP    WIND        PRES    WAVE
                       AIR SEA DIR/SP/G            HT/PER
                 (UTC) (F)     (DEG/KT/KT) (MB)    (FT/S)
NORTHPORT PIER   2145   31      60/  9/ 26 1003.4F
KEWAUNEE LAKESHO 2130   35      40/ 17/ 23  999.5F
SHEBOYGAN LAKESH 2100   36      30/ 15/ 17  998.1F
PORT WASHINGTON  2140   38     340/  4/  8  999.3R
MILWAUKEE LAKESH 2130   38      20/  2/  3   N/A
KENOSHA   LAKESH 2100   39     180/  8/ 11  997.3
$$

TC  - TEMPERATURE IN CELSIUS
VSB - VISIBILITY IN STATUTE MILES
WCI - WIND CHILL INDEX
HX  - HEAT INDEX





USA.gov is the U.S. government's official web portal to all federal, state and local government web resources and services.